Location: ?????
(44.4284°N, 135.2222°E)
Time: 09:57:33
(UTC+00:00)

DELTA 2 R/B (1) - Pass Details

Date: 21 January 2026
Orbit: 786 x 800 km, 39.6° (Epoch: 10 February)

Event Time Altitude Azimuth Distance (km) Brightness Sun altitude
Rises 11:57:10 0° 273° (W) 3,283 7.5 -43.2°
Reaches altitude 10° 11:59:53 10° 263° (W) 2,349 6.5 -43.6°
Enters shadow 12:00:11 11° 262° (W) 2,254 6.4 -43.7°
